Regional Weather Roundup
Issued by NWS

Home | Current Version | Previous Version | Text Only | Print | Product List | Glossary On
Versions: 1 2 3 4 5 6 7 8 9 10 11 12 13 14 15 16 17 18 19 20 21 22 23 24 25 26 27 28 29 30 31 32 33 34 35 36 37 38 39 40 41 42 43 44 45 46 47 48 49 50
000
ASUS43 KTOP 231159
RWRKS

WEATHER ROUNDUP FOR KANSAS
NATIONAL WEATHER SERVICE GOODLAND KS
700 AM CDT TUE MAY 23 2017

NOTE:  "FAIR" INDICATES FEW OR NO CLOUDS BELOW 12,000 FEET WITH NO
SIGNIFICANT WEATHER AND/OR OBSTRUCTIONS TO VISIBILITY.

KSZ001>006-013>018-027>032-041>047-231300-
NORTHWEST KANSAS

CITY           SKY/WX    TMP DP  RH WIND       PRES   REMARKS
GOODLAND       CLEAR     40  38  93 NW12      30.12S WCI  33
6HR MIN TEMP:  40; 6HR MAX TEMP:  46;

HAYS           CLEAR     47  44  90 NW12      30.05R
HILL CITY      CLEAR     46  43  89 NW12      30.06S
6HR MIN TEMP:  45; 6HR MAX TEMP:  51;

RUSSELL        CLEAR     47  45  93 W10       30.02R
6HR MIN TEMP:  46; 6HR MAX TEMP:  54;

$$

KSZ061>065-074>080-084>089-231300-
SOUTHWEST KANSAS

CITY           SKY/WX    TMP DP  RH WIND       PRES   REMARKS
DODGE CITY     MOCLDY    47  44  90 NW15      30.07R
6HR MIN TEMP:  47; 6HR MAX TEMP:  52; 6HR PCP: TRACE;

ELKHART          N/A     45  33  63 NW9         N/A
GARDEN CITY    CLOUDY    44  41  89 NW14      30.10R
6HR MIN TEMP:  44; 6HR MAX TEMP:  53; 6HR PCP: TRACE;

GREAT BEND     PTCLDY    48  46  93 NW10      30.03R
LIBERAL        MOCLDY    47  45  93 NW10      30.12R
$$

KSZ066>073-081>083-090>101-231300-
SOUTHEAST KANSAS

CITY           SKY/WX    TMP DP  RH WIND       PRES   REMARKS
CHANUTE        LGT RAIN  57  54  89 N9        29.88R
6HR MIN TEMP:  57; 6HR MAX TEMP:  61; 6HR PCP: TRACE;

COFFEYVILLE    CLEAR     59  57  93 N10       29.87F
6HR MIN TEMP:  58; 6HR MAX TEMP:  60;

HUTCHINSON     MOCLDY    51  47  86 NW10      29.98R
6HR MIN TEMP:  51; 6HR MAX TEMP:  59; 6HR PCP: TRACE;

MEDICINE LODGE   N/A     52  46  80 NW13      30.01R
NEWTON         CLOUDY    51  49  92 NW12      29.97R
PARSONS        MOCLDY    57  54  89 NW7       29.89S
6HR MIN TEMP:  55; 6HR MAX TEMP:  61;

WICHITA INTL   MOCLDY    54  51  90 N13       29.96R
6HR MIN TEMP:  53; 6HR MAX TEMP:  57; 6HR PCP: TRACE;

WICHITA JABRA  CLOUDY    53  49  86 N13       29.95R
6HR MIN TEMP:  53; 6HR MAX TEMP:  57;

WICHITA MCCONL CLOUDY    54  49  83 N8        29.95R
WINFIELD       CLOUDY    55  52  89 N12       29.94R
6HR MIN TEMP:  51; 6HR MAX TEMP:  59; 6HR PCP:  0.01;

$$

KSZ007>012-019>026-033>040-048>060-102>105-231300-
NORTHEAST KANSAS

CITY           SKY/WX    TMP DP  RH WIND       PRES   REMARKS
CONCORDIA      CLEAR     50  47  89 NW9       29.97S
6HR MIN TEMP:  49; 6HR MAX TEMP:  54; 6HR PCP:  0.06;

EMPORIA        CLOUDY    54  50  86 N12       29.91S
6HR MIN TEMP:  51; 6HR MAX TEMP:  56; 6HR PCP:  0.01;

LAWRENCE       LGT RAIN  54  53  97 NW10      29.89R
6HR MIN TEMP:  53; 6HR MAX TEMP:  56; 6HR PCP: TRACE;

MANHATTAN      CLOUDY    53  50  89 CALM      29.95R
6HR MIN TEMP:  53; 6HR MAX TEMP:  57; 6HR PCP:  0.02;

OLATHE IND     CLOUDY    55  53  93 NW14      29.88R
6HR MIN TEMP:  55; 6HR MAX TEMP:  56;

OLATHE EXE     CLOUDY    55  55 100 N12G18    29.87R
6HR MIN TEMP:  54; 6HR MAX TEMP:  55;

SALINA         PTCLDY    52  48  86 NW9       29.98R
6HR MIN TEMP:  52; 6HR MAX TEMP:  57; 6HR PCP:  0.16;

TOPEKA BILLARD CLOUDY    54  51  90 NW9       29.91R
6HR MIN TEMP:  53; 6HR MAX TEMP:  56; 6HR PCP: TRACE;

TOPEKA FORBES  LGT RAIN  54  50  86 N13       29.91R
6HR MIN TEMP:  52; 6HR MAX TEMP:  57; 6HR PCP: TRACE;

$$




USA.gov is the U.S. government's official web portal to all federal, state and local government web resources and services.